Location: Auttagershofen
(48.1940°N, 10.0237°E)
Time: 15:29:04
(UTC+00:00)

YAOGAN 1 - Pass Details

Date: 18 January 2026
Orbit: 605 x 607 km, 97.8° (Epoch: 10 February)

Event Time Altitude Azimuth Distance (km) Brightness Sun altitude
Rises 06:10:06 0° 20° (NNE) 2,874 6.0 -8.8°
Reaches altitude 10° 06:12:25 10° 29° (NNE) 1,964 5.2 -8.5°
Maximum altitude 06:16:23 37° 97° (E) 957 4.3 -7.9°
Drops below altitude 10° 06:20:19 10° 165° (SSE) 1,948 5.7 -7.2°
Sets 06:22:36 0° 174° (S) 2,846 6.4 -6.9°
